Hourly Data Report for August 21, 2021

TORONTO CITY
ONTARIO
Current Station Operator: ECCC - MSC

43°40'00.000" N
79°24'00.000" W
112.50 m
6158355
71508
XTO

Download Data

Hourly Data (August 2021)
Hourly Data Report for August 21, 2021
TIME
LST
Temp Definition
°C
Dew Point Definition
°C
Rel Hum Definition
%
Precip. Amount Definition
mm

Wind Dir Definition
10's deg

Wind Spd Definition
km/h
Visibility Definition
km
Stn Press Definition
kPa
Hmdx Definition


Wind Chill Definition


Weather Definition


00:00 24.9 18.9 69 0.0       99.99 32   LegendNANA
01:00 24.4 19.2 73 0.0       99.99 31   LegendNANA
02:00 24.5 19.1 72 0.0       99.97 31   LegendNANA
03:00 24.3 19.3 74 0.0       99.95 31   LegendNANA
04:00 23.7 18.8 74 0.0       99.97 30   LegendNANA
05:00 23.2 19.7 81 0.0       99.97 31   LegendNANA
06:00 23.9 20.2 80 0.0       99.98 32   LegendNANA
07:00 24.4 20.6 79 0.0       99.98 32   LegendNANA
08:00 25.1 20.8 77 0.0       100.00 33   LegendNANA
09:00 26.0 20.6 72 0.0       99.95 34   LegendNANA
10:00 26.7 20.9 71 0.0       99.98 35   LegendNANA
11:00 27.9 20.1 63 0.0       99.97 36   LegendNANA
12:00 28.8 20.1 60 0.0       99.95 36   LegendNANA
13:00 27.7 19.8 62 0.0       99.92 35   LegendNANA
14:00 26.5 20.3 69 0.0       99.92 34   LegendNANA
15:00 28.0 19.1 58 0.0       99.86 35   LegendNANA
16:00 28.5 18.8 56 0.0       99.80 35   LegendNANA
17:00 27.7 17.4 54 0.0       99.77 33   LegendNANA
18:00 26.8 18.1 59 0.0       99.83 33   LegendNANA
19:00 26.4 17.4 58 0.0       99.79 32   LegendNANA
20:00 25.4 18.0 63 0.0       99.82 31   LegendNANA
21:00 25.7 16.9 58 0.0       99.84 31   LegendNANA
22:00 24.6 17.3 64 0.0       99.84 30   LegendNANA
23:00 23.6 17.7 70 0.0       99.84 29   LegendNANA

Notes on Data Quality.

Legend

  • E = Estimated
  • M = Missing
  • NA = Not Available*
  • [empty] = Indicates an unobserved value
Date modified: